Home > Weather > Adamstown > Past weeks

Flag for Pitcairn Islands Past Weather in Adamstown, Pitcairn Islands — Yesterday and Last 2 Weeks

Now
68 °F

Overcast.


Feels Like: 68 °F
Forecast: 68 / 71 °F
Wind: 8 mph from Southeast

Location: Rikitea

Current Time: May 24, 2016 at 3:30:41 PM

Latest Report: May 24, 2016 at 2:00 PM


Visibility: 19 mi

Pressure: 30.04 "Hg

Humidity: 66%

Dew Point: 56 °F

Location of AdamstownLocation

Past Weather in Adamstown — Graph

°F

Adamstown Temperature Yesterday

Maximum temperature yesterday: 72 °F (at 12:00 PM)
Minimum temperature yesterday: 66 °F (at 4:00 AM)
Average temperature yesterday: 69 °F

High & Low Weather Summary for the Past Weeks

 TemperatureHumidityPressure
High78 °F (May 12, 1:00 PM)96% (May 11, 2:00 PM)30.09 "Hg (May 11, 2:00 PM)
Low66 °F (May 23, 4:00 AM)54% (May 15, 1:00 AM)29.71 "Hg (May 20, 1:00 PM)
Average72 °F78%29.97 "Hg
* Reported May 9 2:00 PM — May 24 2:00 PM, Adamstown, Weather by CustomWeather, © 2016

Note: Actual official high and low records may vary slightly from our data, if they occured in-between our weather recording intervals... More about our weather records

Advertising

Adamstown Weather History for the Previous 24 Hours

Scroll right to see more
 ConditionsComfort  
Time TempWeatherWind HumidityBarometerVisibility
2:00 PM
Tue, May 24
68 °FOvercast.8 mph66%30.04 "Hg19 mi
1:00 PM69 °FOvercast.8 mph68%30.06 "Hg19 mi
12:00 PM69 °FOvercast.8 mph62%30.07 "Hg19 mi
11:00 AM70 °FOvercast.8 mph60%30.07 "Hg25 mi
10:00 AM70 °FOvercast.10 mph63%30.07 "Hg25 mi
9:00 AM68 °FPartly sunny.9 mph66%30.04 "Hg25 mi
8:00 AM67 °FOvercast.10 mph67%30.02 "Hg25 mi
7:00 AM67 °FOvercast.10 mph70%30.00 "Hg16 mi
6:00 AM67 °FMild.8 mph66%29.97 "HgN/A
5:00 AM68 °FMild.12 mph62%29.96 "HgN/A
4:00 AM68 °FMild.12 mph66%29.96 "HgN/A
3:00 AM68 °FMild.8 mph62%29.98 "HgN/A
2:00 AM68 °FMild.9 mph66%29.99 "HgN/A
1:00 AM68 °FMild.9 mph69%30.01 "HgN/A
12:00 AM69 °FMild.12 mph69%30.00 "HgN/A
11:00 PM
Mon, May 23
69 °FMild.8 mph71%30.01 "HgN/A
10:00 PM69 °FMild.8 mph72%30.01 "HgN/A
9:00 PM69 °FMild.9 mph69%30.00 "HgN/A
8:00 PM69 °FMild.8 mph70%29.99 "HgN/A
7:00 PM68 °FMild.9 mph67%29.97 "HgN/A
6:00 PM69 °FPassing clouds.9 mph73%29.96 "Hg25 mi
5:00 PM68 °FPassing clouds.9 mph71%29.95 "Hg31 mi
4:00 PM70 °FScattered clouds.9 mph70%29.94 "Hg25 mi
3:00 PM71 °FOvercast.10 mph72%29.95 "Hg19 mi
Weather by CustomWeather, © 2016

See weather overviewHow to use our weather pages